Terminal Aerodrome Forecast
Issued by NWS Columbia, SC

Home | Current Version | Previous Version | Text Only | Print | Product List | Glossary On
Versions: 1 2 3 4 5 6 7 8 9 10 11 12 13 14 15 16 17 18 19 20 21 22 23 24 25 26 27 28 29 30 31 32 33 34 35 36 37 38 39 40 41 42
991
FTUS42 KCAE 281549 AAA
TAFAGS
TAF AMD
KAGS 281549Z 2816/2912 05006KT P6SM BKN040 BKN060
     FM282100 05007KT P6SM VCSH SCT025 BKN035
     FM290000 04006KT 5SM -SHRA BR SCT025 OVC035
     FM290400 03005KT 4SM SHRA BR BKN025 OVC040=

USA.gov is the U.S. government's official web portal to all federal, state and local government web resources and services.